Location: The Saddle
(36.8333°N, 80.3417°W)
Time: 06:48:28
(UTC-05:00)

Vanguard 3 - Pass Details

Date: 15 February 2026
Orbit: 507 x 3205 km, 33.3° (Epoch: 5 March)

Event Time Altitude Azimuth Distance (km) Brightness Sun altitude
Rises 21:08:32 0° 272° (W) 3,176 11.1 -37.8°
Reaches altitude 10° 21:11:24 10° 263° (W) 2,004 9.8 -38.3°
Enters shadow 21:11:43 12° 262° (W) 1,874 9.6 -38.4°
